Location: Passau
(48.5830°N, 13.4830°E)
Time: 19:53:18
(UTC+02:00)

S-56A Canister/Altair - Pass Details

Date: 22 May 2024
Orbit: 637 x 2489 km, 38.9° (Epoch: 15 June)

Event Time Altitude Azimuth Distance (km) Brightness Sun altitude
Rises 05:06:17 0° 191° (S) 6,045 11.7 -2.3°
Reaches altitude 10° 05:12:40 10° 173° (S) 4,818 11.3 -1.4°
Maximum altitude 05:19:24 16° 142° (SE) 4,001 11.3 -0.5°
Drops below altitude 10° 05:25:14 10° 110° (ESE) 4,080 11.8 0.4°
Sets 05:29:49 0° 90° (E) 4,710 12.7 1.0°
